Torna al catalogo

STARLINK-35149

AttivoComunicazioniVLEO
NORAD 65512·PAYLOAD·🇺🇸 United States

Lanciato Sep 5, 2025 da Cape Canaveral Space Force Station

Loading…

Prossimi Passaggi (prossime 24 ore)

TLE

AggiornatoSource: CelesTrak SupGP

Epoca: Sep 15, 2026, 02:32 UTC

1 65512C 25198W   26258.10604167  .00024697  00000+0  72973-3 0  2588
2 65512  53.1566 107.0427 0001234  83.3894 104.3600 15.34375620    14

Traccia STARLINK-35149 in tempo reale con AllMySat

Download on the App Store